Regional Weather Roundup
Issued by NWS Charleston, WV

Home | Current Version | Previous Version | Text Only | Print | Product List | Glossary On
Versions: 1 2 3 4 5 6 7 8 9 10 11 12 13 14 15 16 17 18 19 20 21 22 23 24 25 26 27 28 29 30 31 32 33 34 35 36 37 38 39 40 41 42 43 44 45 46 47 48 49 50
000
ASUS41 KRLX 250410
RWRRLX
West Virginia Regional Weather Roundup
National Weather Service Charleston WV
1100 PM EST SAT JAN 24 2015

Note: "fair" indicates few or no clouds below 12,000 feet with no
significant weather and/or obstructions to visibility.

WVZ003-250500-
Northern Panhandle of West Virginia

CITY           SKY/WX    TMP DP  RH WIND       PRES   REMARKS
WHEELING       CLOUDY    32  29  88 W12       29.71R FOG
$$

WVZ009-250500-
Northwest West Virginia

CITY           SKY/WX    TMP DP  RH WIND       PRES   REMARKS
PARKERSBURG    CLOUDY    33  30  88 W8G16     29.82R FOG
$$

WVZ006-250500-
Western West Virginia

CITY           SKY/WX    TMP DP  RH WIND       PRES   REMARKS
HUNTINGTON     MOCLDY    33  31  92 SW5       29.84S FOG
$$

WVZ015-250500-
West Central West Virginia

CITY           SKY/WX    TMP DP  RH WIND       PRES   REMARKS
CHARLESTON     MOCLDY    35  30  82 W12       29.84R
$$

WVZ022-031-250500-
North Central West Virginia

CITY           SKY/WX    TMP DP  RH WIND       PRES   REMARKS
CLARKSBURG     CLOUDY    32  29  88 W9G18     29.76R
MORGANTOWN     CLOUDY    31  26  82 SW8       29.74R
$$

WVZ025-035-042-045-250500-
Southern West Virginia

CITY           SKY/WX    TMP DP  RH WIND       PRES   REMARKS
BECKLEY        CLOUDY    30  26  85 W10       29.78R
LOGAN          MOCLDY    32  30  93 SW6       29.84R
BLUEFIELD      CLOUDY    31  26  82 NW15G28   29.78R
LEWISBURG      MIX PCPN  32  28  83 W10G23    29.75R
$$

WVZ047-250500-
Northern Mountains of West Virginia

CITY           SKY/WX    TMP DP  RH WIND       PRES   REMARKS
ELKINS         CLOUDY    30  28  92 W12G21    29.73R
$$

WVZ052-250500-
Eastern Panhandle of West Virginia

CITY           SKY/WX    TMP DP  RH WIND       PRES   REMARKS
MARTINSBURG    CLOUDY    38  25  59 W23G32    29.65R
PETERSBURG     CLOUDY    37  25  60 NW3       29.71R
$$


USA.gov is the U.S. government's official web portal to all federal, state and local government web resources and services.